STARLINK-34047, 63821

Orbit data source: Space-Track

STARLINK-34047, 63821 is a payload satellite owned by SpaceX/Seattle (US) in LEO that was launched on Sun, 04 May 2025 UTC via an FALCON 9 launch vehicle from the Air Force Eastern Test Range (AFETR). Payload-class satellites include a variety of spacecraft equipped with specific instruments for various scientific and technological missions. These include communications satellites like Starlink; space stations such as the ISS; scientific satellites like the Hubble; Earth observation satellites from companies like Planet Labs, Umbra, and HawkEye 360; GPS; miniature CubeSats for education and research; and military/defense satellites.

Loading next visibility...
Identifier
63821, 2025-092T
Orbit
LEO
Country
Flag of USUS
Related business
Manufacturer
SpaceX/Seattle
Mission
Operational Commercial Communications
Bus & Motor
STARLINK V2MO, Unknown motor
Mass
575 kg wet, ~530 kg dry
Launch date (UTC)
2025-05-04 (5 months ago)
Launch vehicle
FALCON 9
Launch site
Air Force Eastern Test Range (AFETR)
Object type
Payload
Rocket body
Debris
Shape & HBR
Box + 2 Pan, 17.7 m
Radar Cross Section
36.964 m², Large (>1 m²)

Expand to show TLE details & history
Last TLE update: 2 days ago

TLE from 2 days ago
0 STARLINK-34047
1 63821U 25092T   25285.72372073  .00060816  00000-0  21982-2 0  9996
2 63821  43.0022 288.3108 0001792 275.5682  84.4966 15.27627023 26030
Epoch: 2025-10-12T17:22Z
TLE epoch observation values (Epoch: 2025-10-12T17:22:09.471Z)
Latitude
0.00005°
Longitude
6.23464°
Altitude
482.566 km
Speed
7.626 km/s
True Right ascension
19h 13m 14s
True Declination
0° 00' 00"
Sunlit
Object was in daylight at epoch
Visualization orbit readout
Latitude
Unknown
Longitude
Unknown
Altitude
Unknown
Speed
Unknown
Apparent Right ascension
Unknown
Apparent Declination
Unknown
Sunlit
N/A
Visualization observer readout
Local Sidereal Time
12:12:21
Azimuth
Unknown
Elevation
Unknown
Doppler factor
Unknown
Orbital elements
Apogee altitude
486.083 km
Perigee altitude
483.623 km
Semi-major axis
6,862.99 km
Eccentricity
0.00018
Inclination
43.0022°
RAAN
288.3108°
Arg. of periapsis
275.5682°
True anomaly
84.51704°
Mean anomaly
84.4966°
Eccentric anomaly
84.50682°
Mean motion
3.81745 °/min
Orbital period
94.3 mins
BSTAR
0.0021982
Loading maneuver chart data...
Computing Atmospheric mass density...
Loading historical data...
Loading historical data...
Loading historical data...
Loading historical data...
Loading historical data...
Loading historical data...
Loading historical data...

Documentation

Showing up to 5 results
|